CW9861 Weather Reports


time (UTC)temp
F
wind
direction
speed
knots
gust
knots
rain 1hr
in
rain 24hr
in
rain mn
in
humidity
%
barometer
mb
20260504213459 74 225 5.2 20.9 0.00 0.00 0.00 37 997.3
20260504212959 74 295 7.8 20.9 0.00 0.00 0.00 36 997.4
20260504212459 74 309 5.2 15.6 0.00 0.00 0.00 36 997.4
20260504211959 75 199 1.7 10.4 0.00 0.00 0.00 36 997.4
20260504211459 75 226 4.3 16.5 0.00 0.00 0.00 35 997.4
20260504210959 74 221 6.1 16.5 0.00 0.00 0.00 35 997.6
20260504210459 74 195 6.1 12.2 0.00 0.00 0.00 37 997.6
20260504205958 74 236 6.1 13.9 0.00 0.00 0.00 34 997.6
20260504205459 74 281 7.8 14.8 0.00 0.00 0.00 34 997.5
20260504204958 74 214 7.0 15.6 0.00 0.00 0.00 33 997.7
20260504204457 73 331 3.5 15.6 0.00 0.00 0.00 33 998.0
20260504203958 73 243 7.8 17.4 0.00 0.00 0.00 32 998.0
20260504203458 74 240 9.6 17.4 0.00 0.00 0.00 30 998.0
20260504202958 74 328 4.3 13.0 0.00 0.00 0.00 32 997.9
20260504202458 74 271 3.5 16.5 0.00 0.00 0.00 35 997.9
20260504201958 75 234 6.1 16.5 0.00 0.00 0.00 34 998.0
20260504201458 75 219 4.3 11.3 0.00 0.00 0.00 33 998.0
20260504200958 75 224 5.2 16.5 0.00 0.00 0.00 35 998.1
20260504200459 75 271 7.0 16.5 0.00 0.00 0.00 34 998.2
20260504195958 75 221 6.1 14.8 0.00 0.00 0.00 32 998.4
20260504195458 75 259 5.2 14.8 0.00 0.00 0.00 32 998.3
20260504194959 75 235 3.5 16.5 0.00 0.00 0.00 32 998.3
20260504194458 75 313 7.8 16.5 0.00 0.00 0.00 29 998.4
20260504193958 75 313 6.1 14.8 0.00 0.00 0.00 32 998.5
20260504193458 74 337 7.0 13.9 0.00 0.00 0.00 28 998.5
20260504192958 75 223 6.1 16.5 0.00 0.00 0.00 30 998.5
20260504192458 75 291 6.1 16.5 0.00 0.00 0.00 30 998.4
20260504191958 76 280 6.1 17.4 0.00 0.00 0.00 27 998.5
20260504191457 75 211 9.6 19.1 0.00 0.00 0.00 28 998.5
20260504190958 75 317 7.8 19.1 0.00 0.00 0.00 27 998.4
20260504190458 75 188 8.7 18.2 0.00 0.00 0.00 30 998.4
20260504185958 75 222 6.1 18.2 0.00 0.00 0.00 28 998.3
20260504185458 76 213 7.8 18.2 0.00 0.00 0.00 30 998.3
20260504184957 75 343 8.7 16.5 0.00 0.00 0.00 27 998.4
20260504184458 75 220 8.7 14.8 0.00 0.00 0.00 28 998.4
20260504183958 76 232 7.8 14.8 0.00 0.00 0.00 29 998.4
20260504180457 75 313 8.7 18.2 0.00 0.00 0.00 27 998.3
20260504175958 75 280 7.0 13.9 0.00 0.00 0.00 28 998.5
20260504175458 76 288 5.2 13.0 0.00 0.00 0.00 27 998.5
20260504174958 76 206 6.1 15.6 0.00 0.00 0.00 27 998.7
20260504174457 76 303 6.1 15.6 0.00 0.00 0.00 30 998.9
20260504173958 76 299 6.1 13.0 0.00 0.00 0.00 30 998.7
20260504173457 75 234 7.0 11.3 0.00 0.00 0.00 31 998.8
20260504172958 76 240 2.6 18.2 0.00 0.00 0.00 33 998.9
20260504172458 75 320 2.6 18.2 0.00 0.00 0.00 32 998.9
20260504171958 75 196 4.3 13.0 0.00 0.00 0.00 34 999.0
20260504171457 75 286 6.1 14.8 0.00 0.00 0.00 31 999.1
20260504170957 75 313 6.1 14.8 0.00 0.00 0.00 32 999.1
20260504170457 74 9 6.1 14.8 0.00 0.00 0.00 34 999.2
20260504140959 63 200 3.5 11.3 0.00 0.00 0.00 62 1001.1
20260504140459 62 232 4.3 11.3 0.00 0.00 0.00 63 1001.1
20260504130458 57 230 4.3 8.7 0.00 0.00 0.00 72 1001.8
20260504110459 47 232 0.9 2.6 0.00 0.00 0.00 85 1001.4
20260504081958 49 224 0.9 2.6 0.00 0.00 0.00 80 1001.9
20260504081459 49 295 0.9 2.6 0.00 0.00 0.00 80 1002.0
20260504080958 49 307 0.0 2.6 0.00 0.00 0.00 80 1002.1
20260504080458 49 247 0.9 1.7 0.00 0.00 0.00 80 1002.1
20260504050457 51 162 2.6 7.0 0.00 0.00 0.00 77 1003.7
20260504045959 51 242 3.5 7.8 0.00 0.00 0.00 77 1003.8
20260504045458 51 210 3.5 8.7 0.00 0.00 0.00 77 1003.9
20260504044958 51 223 2.6 7.8 0.00 0.00 0.00 77 1003.9
20260504044458 51 226 3.5 7.8 0.00 0.00 0.00 77 1004.0
20260504043958 51 165 2.6 7.8 0.00 0.00 0.00 76 1004.0
20260504043459 51 180 1.7 8.7 0.00 0.00 0.00 76 1004.0
20260504042958 51 180 3.5 8.7 0.00 0.00 0.00 76 1004.1
20260504042458 51 266 3.5 7.8 0.00 0.00 0.00 76 1004.1
20260504041958 51 238 3.5 7.8 0.00 0.00 0.00 76 1004.2
20260504041458 51 180 2.6 7.8 0.00 0.00 0.00 76 1004.2
20260504041000 51 220 3.5 11.3 0.00 0.00 0.00 76 1004.2
20260504040458 51 271 5.2 11.3 0.00 0.00 0.00 76 1004.2
20260504035959 51 218 1.7 8.7 0.00 0.00 0.00 75 1004.2
20260504035458 51 180 2.6 11.3 0.00 0.00 0.00 75 1004.3
20260504034959 51 186 4.3 11.3 0.00 0.00 0.00 75 1004.3
20260504034458 51 266 5.2 8.7 0.00 0.00 0.00 75 1004.4
20260504033958 51 166 3.5 8.7 0.00 0.00 0.00 74 1004.6
20260504033458 51 217 4.3 8.7 0.00 0.00 0.00 74 1004.7
20260504015000 53 176 0.9 7.0 0.00 0.00 0.00 68 1004.9
20260504014459 53 234 1.7 5.2 0.00 0.00 0.00 68 1005.0
20260504013959 53 225 0.9 6.1 0.00 0.00 0.00 67 1004.9
20260504013459 53 210 0.9 8.7 0.00 0.00 0.00 67 1004.9
20260504013000 53 214 3.5 8.7 0.00 0.00 0.00 67 1005.0
20260504012459 53 226 2.6 7.0 0.00 0.00 0.00 67 1004.9
20260504011959 53 228 2.6 7.0 0.00 0.00 0.00 67 1004.9
20260504011459 54 183 2.6 6.1 0.00 0.00 0.00 66 1004.9
20260504010959 54 188 0.9 9.6 0.00 0.00 0.00 66 1005.0
20260504010459 54 239 3.5 8.7 0.00 0.00 0.00 66 1005.0
20260504005959 54 157 1.7 8.7 0.00 0.00 0.00 66 1004.9
20260504005458 54 188 3.5 9.6 0.00 0.00 0.00 66 1004.9
20260504004958 54 217 4.3 9.6 0.00 0.00 0.00 66 1004.9
20260504004458 54 230 1.7 9.6 0.00 0.00 0.00 65 1005.1
20260504003958 54 228 3.5 9.6 0.00 0.00 0.00 65 1005.1
20260504003458 54 228 2.6 5.2 0.00 0.00 0.00 65 1005.1
20260504002958 54 190 1.7 7.0 0.00 0.00 0.00 64 1005.0
20260504002458 54 168 2.6 7.0 0.00 0.00 0.00 64 1005.1
20260504001958 55 240 2.6 8.7 0.00 0.00 0.00 63 1005.1
20260504001459 55 252 3.5 12.2 0.00 0.00 0.00 63 1005.1
20260504000958 55 198 7.0 12.2 0.00 0.00 0.00 63 1005.2
20260504000459 55 236 1.7 13.9 0.00 0.00 0.00 63 1005.2
20260503235959 55 249 7.0 13.9 0.00 0.00 0.00 62 1005.3
20260503235458 55 221 5.2 9.6 0.00 0.00 0.00 63 1005.4
20260503234958 55 217 2.6 9.6 0.00 0.00 0.00 63 1005.5
20260503234458 55 188 3.5 9.6 0.00 0.00 0.00 63 1005.4
20260503233958 55 210 2.6 8.7 0.00 0.00 0.00 63 1005.5
20260503233458 55 211 0.9 12.2 0.00 0.00 0.00 62 1005.4
20260503232958 55 201 6.1 12.2 0.00 0.00 0.00 62 1005.6
20260503232458 56 196 3.5 7.8 0.00 0.00 0.00 61 1005.6
20260503231958 56 184 2.6 9.6 0.00 0.00 0.00 62 1005.6